Regional Weather Roundup
Issued by NWS

Home | Current Version | Previous Version | Graphics & Text | Print | Product List | Glossary On
Versions: 1 2 3 4 5 6 7 8 9 10 11 12 13 14 15 16 17 18 19 20 21 22 23 24 25 26 27 28 29 30 31 32 33 34 35 36 37 38 39 40 41 42 43 44 45 46 47 48 49 50
000
ASUS43 KIND 101759
RWRIN

WEATHER ROUNDUP FOR INDIANA
NATIONAL WEATHER SERVICE INDIANAPOLIS IN
100 PM EST SUN DEC 10 2017

NOTE: "FAIR" INDICATES FEW OR NO CLOUDS BELOW 12,000 FEET WITH NO
SIGNIFICANT WEATHER AND/OR OBSTRUCTIONS TO VISIBILITY.

* - STATION DOES NOT REPORT WEATHER SUCH AS PRECIPITATION OR FOG.

+ - STATION NOT QUALITY CONTROLLED BY THE NATIONAL WEATHER SERVICE.
    USE DATA WITH CAUTION...ESPECIALLY DEWPOINT AND RELATIVE
    HUMIDITY OBSERVATIONS.

INZ001>003-010>013-019-020-101900-
NORTHWEST INDIANA

CITY           SKY/WX    TMP DP  RH WIND       PRES   REMARKS
GARY /AIRPORT/ PTSUNNY   36  19  51 SW17G29   29.89F WCI  25
MONTICELLO +   SUNNY     33  17  53 SW14G21   29.91F WCI  23
6HR MIN TEMP:  21; 6HR MAX TEMP:  33;


$$

LMZ046-743>745-101900-
SOUTHERN LAKE MICHIGAN

STATION/POSITION TIME  TEMP    WIND        PRES    WAVE
                       AIR SEA DIR/SP/G            HT
                 (UTC) (F)     (DEG/KT/KT) (MB)    (FT)
BURNS HARBOR     1740   33     240/ 16/ 21 1012.5F
MICHIGAN CITY    1730   30     210/ 20/ 23   N/A

$$

INZ004-005-014>016-021>024-101900-
NORTH CENTRAL INDIANA

CITY           SKY/WX    TMP DP  RH WIND       PRES   REMARKS
GOSHEN         MOSUNNY   27  18  69 SW14      29.89F WCI  16
6HR MIN TEMP:  18; 6HR MAX TEMP:  27;

PERU/GRISSOM   SUNNY     32  20  61 SW20      29.90F WCI  20
6HR MIN TEMP:  21; 6HR MAX TEMP:  32;

SOUTH BEND     SUNNY     27  20  75 SW15      29.89F WCI  15
6HR MIN TEMP:  17; 6HR MAX TEMP:  27;


$$

INZ006>009-017-018-025>027-101900-
NORTHEAST INDIANA

CITY           SKY/WX    TMP DP  RH WIND       PRES   REMARKS
FORT WAYNE     MOSUNNY   29  21  72 SW16      29.92F WCI  17
6HR MIN TEMP:  19; 6HR MAX TEMP:  29;

KENDALLVILLE + CLOUDY    27  18  69 SW10G18   29.90F WCI  17

$$

INZ028-029-035-036-043>045-051>053-101900-
WEST CENTRAL INDIANA

CITY           SKY/WX    TMP DP  RH WIND       PRES   REMARKS
LAFAYETTE      CLOUDY    35  20  54 SW18G25   29.92F WCI  24
6HR MIN TEMP:  21; 6HR MAX TEMP:  35;

TERRE HAUTE    MOSUNNY   35  19  52 S14       29.97F WCI  26
6HR MIN TEMP:  23; 6HR MAX TEMP:  37;


$$

INZ030>032-037>040-046>048-054>057-064-065-101900-
CENTRAL INDIANA

CITY           SKY/WX    TMP DP  RH WIND       PRES   REMARKS
COLUMBUS       CLOUDY    32  16  51 S16       30.03F WCI  21
INDIANAPOLIS   CLOUDY    33  17  51 SW18      29.97F WCI  22
6HR MIN TEMP:  20; 6HR MAX TEMP:  33;

-EAGLE CREEK   CLOUDY    33  17  51 S15       29.95F WCI  23
6HR MIN TEMP:  21; 6HR MAX TEMP:  33;

KOKOMO +       SUNNY     34  19  54 S20G25    29.92F WCI  23
6HR MIN TEMP:  20; 6HR MAX TEMP:  34;

MT COMFORT *+  MOSUNNY   30  23  74 S17G23    29.97F WCI  18
SHELBYVILLE    CLOUDY    32  18  56 SW20      29.99F WCI  20
6HR MIN TEMP:  21; 6HR MAX TEMP:  32;


$$

INZ033-034-041-042-049-050-058-059-101900-
EAST CENTRAL INDIANA

CITY           SKY/WX    TMP DP  RH WIND       PRES   REMARKS
MUNCIE         CLOUDY    30  18  60 SW15G24   29.94F WCI  19
6HR MIN TEMP:  21; 6HR MAX TEMP:  30;

RICHMOND +     CLOUDY    28  19  69 SW18      29.99F WCI  16

$$

INZ060-061-067>069-081>083-085>088-101900-
SOUTHWEST INDIANA

CITY           SKY/WX    TMP DP  RH WIND       PRES   REMARKS
EVANSVILLE     SUNNY     39  23  52 S17G26    30.09F WCI  30
6HR MIN TEMP:  20; 6HR MAX TEMP:  39;

HUNTINGBURG +  SUNNY     38  22  52 SW16G24   30.09F WCI  29
6HR MIN TEMP:  21; 6HR MAX TEMP:  38;


$$

INZ062-063-066-070>080-084-089>092-101900-
SOUTH CENTRAL AND SOUTHEAST INDIANA

CITY           SKY/WX    TMP DP  RH WIND       PRES   REMARKS
BLOOMINGTON    MOSUNNY   36  18  48 SW16G24   30.00F WCI  26
6HR MIN TEMP:  20; 6HR MAX TEMP:  36;

MADISON *+     CLOUDY    34  19  55 SW10      30.08F WCI  26
SEYMOUR +      CLOUDY    36  19  51 S16       30.05F WCI  26

$$





USA.gov is the U.S. government's official web portal to all federal, state and local government web resources and services.